sat.trackr.live / text

‹ back to catalog

ONEWEB-0040

NORAD 45147 · 2020-008S

PAYLOAD ACTIVE UNKNOWN

§ Identity

Operator
Country
UK
Launch date
2020-02-06
Launch site
TYMSC
Launch vehicle
Mass (kg)
RCS (m²)

Purposes: comms

External: N2YO · Heavens-Above · Gunter

§ Orbital elements

Epoch: 2026-09-03T18:33:54.036576Z

Period
109.89 min
Inclination
87.8871°
Eccentricity
0.0001586
Mean motion
13.10370711 rev/d
Perigee alt
1,220.5 km
Apogee alt
1,222.9 km
Semi-major
7,599.9 km
B*
-7.4916e-4
RAAN
20.6227°
Arg perigee
106.6119°
Mean anomaly
253.5183°
Rev number
31,815

§ Raw data

ONEWEB-00401 45147U 20008S   26246.77354209 -.00000249  00000+0 -74916-3 0  99942 45147  87.8871  20.6227 0001586 106.6119 253.5183 13.10370711318154

JSON: /api/v1/satellites/45147 · /tle

For live sub-satellite position, see the globe view (requires WebGL).

§ Visibility from observer

Set your observer location to see the next 7 days of passes ≥ 10°. The values pass through the URL so the page stays shareable.

No JS? Fill the form by hand. The geolocation button needs JavaScript.